Location: Benalto
(52.3088°N, 114.2787°W)
Time: 12:37:02
(UTC+00:00)

N. Korean satellite - Pass Details

Date: 05 December 2021
Orbit: 447 x 490 km, 97.3° (Epoch: 27 January)

Event Time Altitude Azimuth Distance (km) Brightness Sun altitude
Rises 00:51:11 0° 201° (SSW) 2,524 10.9 -12.2°
Reaches altitude 10° 00:53:41 10° 220° (SW) 1,642 10.2 -12.6°
Maximum altitude 00:56:17 19° 268° (W) 1,175 9.5 -12.9°
Drops below altitude 10° 00:58:53 10° 316° (NW) 1,632 9.6 -13.3°
Sets 01:01:21 0° 334° (NNW) 2,505 10.3 -13.7°
